• In Denmark
  • List of Countries
  • For 7 days
  • Water Temperature
  • Satellite Maps
  • Weather Map
  • Weather Widgets
  • user-avatar
    Login

    Hourly Weather Bregenz

    Today, 12 December, Tuesday

    Time Temperature Precipitation Wind Pressure Humidity
    00:00 -2°C° 1.5 mm 3 mps 628 mmHg 94%
    01:00 -2°C° 1.5 mm 3 mps 629 mmHg 93%
    02:00 -2°C° 1.2 mm 3 mps 629 mmHg 94%
    03:00 -4°C° 1.2 mm 3 mps 630 mmHg 94%
    04:00 -4°C° 1.2 mm 3 mps 631 mmHg 94%
    05:00 -4°C° 1.1 mm 3 mps 632 mmHg 94%
    06:00 -5°C° 1.1 mm 3 mps 633 mmHg 94%
    07:00 -7°C° 1.1 mm 4 mps 634 mmHg 94%
    08:00 -6°C° 0.7 mm 3 mps 635 mmHg 94%
    09:00 -6°C° 0.7 mm 3 mps 636 mmHg 93%
    10:00 -7°C° 0.7 mm 3 mps 637 mmHg 93%
    11:00 -7°C° 0.5 mm 3 mps 637 mmHg 93%
    12:00 -7°C° 0.5 mm 3 mps 638 mmHg 92%
    13:00 -7°C° 0.5 mm 3 mps 639 mmHg 92%
    14:00 -7°C° 0.3 mm 3 mps 639 mmHg 92%
    15:00 -6°C° 0.3 mm 2 mps 640 mmHg 92%
    16:00 -6°C° 0.3 mm 2 mps 640 mmHg 93%
    17:00 -7°C° 0.2 mm 2 mps 641 mmHg 93%
    18:00 -7°C° 0.2 mm 2 mps 641 mmHg 93%
    19:00 -8°C° 0.2 mm 2 mps 642 mmHg 93%
    20:00 -8°C° 0.1 mm 2 mps 643 mmHg 93%
    21:00 -7°C° 0.1 mm 1 mps 643 mmHg 93%
    22:00 -8°C° 0.1 mm 1 mps 644 mmHg 93%
    23:00 -9°C° 0 mm 2 mps 644 mmHg 93%

    Tomorrow, 13 December, Wednesday

    Time Temperature Precipitation Wind Pressure Humidity
    00:00 -10°C° 0 mm 2 mps 644 mmHg 92%
    01:00 -10°C° 0 mm 2 mps 644 mmHg 92%
    02:00 -12°C° 0 mm 2 mps 644 mmHg 90%
    03:00 -13°C° 0 mm 2 mps 644 mmHg 88%
    04:00 -13°C° 0 mm 2 mps 644 mmHg 86%
    05:00 -13°C° 0 mm 2 mps 644 mmHg 83%
    06:00 -13°C° 0 mm 2 mps 644 mmHg 79%
    07:00 -14°C° 0 mm 2 mps 644 mmHg 76%
    08:00 -13°C° 0 mm 3 mps 644 mmHg 73%
    09:00 -12°C° 0 mm 3 mps 644 mmHg 70%
    10:00 -10°C° 0 mm 3 mps 644 mmHg 68%
    11:00 -8°C° 0 mm 3 mps 643 mmHg 67%
    12:00 -5°C° 0 mm 2 mps 643 mmHg 67%
    13:00 -3°C° 0 mm 2 mps 642 mmHg 66%
    14:00 -4°C° 0 mm 2 mps 642 mmHg 68%
    15:00 -4°C° 0 mm 2 mps 641 mmHg 70%
    16:00 -4°C° 0 mm 2 mps 641 mmHg 72%
    17:00 -6°C° 0.1 mm 3 mps 641 mmHg 72%
    18:00 -6°C° 0.1 mm 3 mps 640 mmHg 71%
    19:00 -6°C° 0.1 mm 3 mps 640 mmHg 71%
    20:00 -6°C° 0.1 mm 3 mps 640 mmHg 71%
    21:00 -6°C° 0.1 mm 3 mps 639 mmHg 71%
    22:00 -7°C° 0.1 mm 4 mps 639 mmHg 71%
    23:00 -7°C° 0.7 mm 4 mps 639 mmHg 75%

    Day after tomorrow, 14 December, Thursday

    Time Temperature Precipitation Wind Pressure Humidity
    00:00 -5°C° 0.7 mm 4 mps 638 mmHg 80%
    01:00 -6°C° 0.7 mm 5 mps 638 mmHg 84%
    02:00 -6°C° 0.2 mm 5 mps 638 mmHg 82%
    03:00 -6°C° 0.2 mm 5 mps 638 mmHg 81%
    04:00 -6°C° 0.2 mm 5 mps 638 mmHg 79%
    05:00 -6°C° 0.2 mm 5 mps 638 mmHg 81%
    06:00 -4°C° 0.2 mm 4 mps 638 mmHg 84%
    07:00 -4°C° 0.2 mm 4 mps 638 mmHg 86%
    08:00 -4°C° 0.5 mm 4 mps 638 mmHg 88%
    09:00 -4°C° 0.5 mm 3 mps 638 mmHg 90%
    10:00 -4°C° 0.5 mm 3 mps 638 mmHg 91%
    11:00 -2°C° 0.3 mm 3 mps 638 mmHg 91%
    12:00 -2°C° 0.3 mm 3 mps 638 mmHg 91%
    13:00 -1°C° 0.3 mm 3 mps 637 mmHg 91%
    14:00 -2°C° 0 mm 3 mps 636 mmHg 90%
    15:00 -2°C° 0 mm 3 mps 635 mmHg 90%
    16:00 -3°C° 0 mm 2 mps 635 mmHg 89%
    17:00 -4°C° 0 mm 3 mps 634 mmHg 88%
    18:00 -4°C° 0 mm 3 mps 634 mmHg 86%
    19:00 -4°C° 0 mm 4 mps 633 mmHg 85%
    20:00 -4°C° 0.4 mm 4 mps 633 mmHg 84%
    21:00 -5°C° 0.4 mm 5 mps 633 mmHg 82%
    22:00 -5°C° 0.4 mm 5 mps 633 mmHg 81%
    23:00 -5°C° 2 mm 5 mps 633 mmHg 85%

    15 December, Friday

    Time Temperature Precipitation Wind Pressure Humidity
    00:00 -4°C° 2 mm 4 mps 633 mmHg 89%
    01:00 -5°C° 2 mm 4 mps 633 mmHg 92%
    02:00 -5°C° 1.4 mm 4 mps 633 mmHg 93%
    03:00 -5°C° 1.4 mm 3 mps 634 mmHg 94%
    04:00 -6°C° 1.4 mm 3 mps 634 mmHg 95%
    05:00 -5°C° 0.6 mm 2 mps 633 mmHg 95%
    06:00 -5°C° 0.6 mm 2 mps 633 mmHg 95%
    07:00 -5°C° 0.6 mm 2 mps 633 mmHg 94%
    08:00 -5°C° 0.5 mm 2 mps 633 mmHg 94%
    09:00 -5°C° 0.5 mm 2 mps 633 mmHg 94%
    10:00 -5°C° 0.5 mm 2 mps 632 mmHg 94%
    11:00 -4°C° 0.4 mm 2 mps 632 mmHg 94%
    12:00 -4°C° 0.4 mm 2 mps 632 mmHg 93%
    13:00 -4°C° 0.4 mm 2 mps 631 mmHg 93%
    14:00 -4°C° 0.3 mm 2 mps 631 mmHg 93%
    15:00 -4°C° 0.3 mm 2 mps 631 mmHg 92%
    16:00 -6°C° 0.3 mm 3 mps 631 mmHg 92%
    17:00 -6°C° 0.1 mm 2 mps 631 mmHg 92%
    18:00 -6°C° 0.1 mm 2 mps 631 mmHg 91%
    19:00 -7°C° 0.1 mm 2 mps 632 mmHg 90%
    20:00 -7°C° 0.1 mm 2 mps 632 mmHg 90%
    21:00 -7°C° 0.1 mm 2 mps 632 mmHg 89%
    22:00 -8°C° 0.1 mm 3 mps 632 mmHg 88%
    23:00 -7°C° 0.1 mm 2 mps 633 mmHg 89%

    16 December, Saturday

    Time Temperature Precipitation Wind Pressure Humidity
    00:00 -7°C° 0.1 mm 2 mps 633 mmHg 90%
    01:00 -7°C° 0.1 mm 2 mps 633 mmHg 91%
    02:00 -7°C° 0.2 mm 2 mps 634 mmHg 92%
    03:00 -7°C° 0.2 mm 2 mps 634 mmHg 93%
    04:00 -8°C° 0.2 mm 2 mps 634 mmHg 93%
    05:00 -9°C° 0.3 mm 3 mps 634 mmHg 93%
    06:00 -9°C° 0.3 mm 3 mps 635 mmHg 93%
    07:00 -9°C° 0.3 mm 3 mps 635 mmHg 92%
    08:00 -9°C° 0.5 mm 3 mps 636 mmHg 92%
    09:00 -8°C° 0.5 mm 3 mps 636 mmHg 92%
    10:00 -8°C° 0.5 mm 3 mps 637 mmHg 92%
    11:00 -8°C° 0.3 mm 3 mps 637 mmHg 92%
    12:00 -7°C° 0.3 mm 3 mps 638 mmHg 91%
    13:00 -7°C° 0.3 mm 3 mps 638 mmHg 91%
    14:00 -7°C° 0.3 mm 3 mps 638 mmHg 92%
    15:00 -8°C° 0.3 mm 3 mps 639 mmHg 92%
    16:00 -8°C° 0.3 mm 3 mps 639 mmHg 92%
    17:00 -9°C° 0.1 mm 3 mps 640 mmHg 92%
    18:00 -9°C° 0.1 mm 3 mps 640 mmHg 92%
    19:00 -10°C° 0.1 mm 3 mps 640 mmHg 93%
    20:00 -10°C° 0.1 mm 3 mps 641 mmHg 92%
    21:00 -12°C° 0.1 mm 3 mps 641 mmHg 91%
    22:00 -12°C° 0.1 mm 3 mps 641 mmHg 90%
    23:00 -13°C° 0 mm 3 mps 641 mmHg 89%

    17 December, Sunday

    Time Temperature Precipitation Wind Pressure Humidity
    00:00 -13°C° 0 mm 3 mps 641 mmHg 89%
    01:00 -13°C° 0 mm 2 mps 641 mmHg 88%
    02:00 -14°C° 0.1 mm 3 mps 641 mmHg 88%
    03:00 -13°C° 0.1 mm 3 mps 641 mmHg 88%
    04:00 -13°C° 0.1 mm 3 mps 642 mmHg 88%
    05:00 -13°C° 0.1 mm 3 mps 642 mmHg 88%
    06:00 -13°C° 0.1 mm 3 mps 642 mmHg 88%
    07:00 -10°C° 0.1 mm 2 mps 642 mmHg 88%
    08:00 -10°C° 0 mm 2 mps 642 mmHg 87%
    09:00 -10°C° 0 mm 2 mps 642 mmHg 86%
    10:00 -9°C° 0 mm 2 mps 643 mmHg 86%
    11:00 -8°C° 0 mm 2 mps 643 mmHg 84%
    12:00 -7°C° 0 mm 2 mps 642 mmHg 81%
    13:00 -6°C° 0 mm 2 mps 642 mmHg 79%
    14:00 -7°C° 0 mm 2 mps 642 mmHg 82%
    15:00 -8°C° 0 mm 2 mps 642 mmHg 84%
    16:00 -9°C° 0 mm 2 mps 642 mmHg 87%
    17:00 -9°C° 0 mm 2 mps 642 mmHg 86%
    18:00 -10°C° 0 mm 2 mps 642 mmHg 85%
    19:00 -12°C° 0 mm 2 mps 643 mmHg 83%
    20:00 -12°C° 0.1 mm 2 mps 643 mmHg 82%
    21:00 -10°C° 0.1 mm 2 mps 643 mmHg 81%
    22:00 -10°C° 0.1 mm 2 mps 643 mmHg 80%
    23:00 -12°C° 0.1 mm 2 mps 643 mmHg 80%
    Show more